Date String (YYYY-MM-DD hh:mm:ss) UTC,Instrument flags,Ambient pressure (hPa),Sample flow (lpm),Bypass flow (lpm),Sample temperature (°C),Ambient temperature (°C),ASC tube jacket temperature (°C),LED temperature (°C),Box temperature (°C),Sample RH (%),Span deviation,Mass concentration (μg/m³),Mass concentration (μg/m³),Mass concentration (μg/m³)
DateTimeUTC,F1_M11,P_M11,Q1_M11,Q2_M11,T1_M11,T2_M11,T3_M11,T4_M11,T5_M11,U1_M11,ZSPAN_M11,X0_M11,X2_M11,X1_M11
2022-12-14 07:00:00,,0812.4,5.01,0.00,22.3,21.2,00.0,31.2,24.1,10.5,0001.3,0029.58,0010.81,0008.06
2022-12-14 07:01:00,,0812.4,5.01,0.00,22.3,21.1,00.0,31.2,24.1,10.5,0001.7,0029.58,0010.70,0008.04
2022-12-14 07:02:00,,0812.4,5.00,0.00,22.3,21.0,00.0,31.2,24.1,10.5,0001.3,0029.03,0010.75,0008.04
2022-12-14 07:03:00,,0812.4,5.01,0.00,22.3,21.0,00.0,31.2,24.1,10.5,0001.0,0027.87,0010.70,0008.03
2022-12-14 07:04:00,,0812.4,5.01,0.00,22.3,20.9,00.0,31.2,24.1,10.6,0001.1,0027.24,0010.66,0008.04
2022-12-14 07:05:00,,0812.4,5.00,0.00,22.3,20.9,00.0,31.1,24.1,10.5,0001.6,0027.62,0010.68,0008.05
2022-12-14 07:06:00,,0812.4,5.00,0.00,22.3,20.8,00.0,31.1,24.1,10.5,0001.5,0027.99,0010.66,0008.04
2022-12-14 07:07:00,,0812.4,5.01,0.00,22.3,20.8,00.0,31.1,24.1,10.5,0001.3,0028.80,0010.62,0007.99
2022-12-14 07:08:00,,0812.4,5.00,0.00,22.3,20.8,00.0,31.1,24.1,10.6,0001.4,0028.01,0010.65,0007.96
2022-12-14 07:09:00,,0812.4,4.99,0.00,22.3,20.7,00.0,31.1,24.0,10.6,0001.3,0026.88,0010.75,0007.96
2022-12-14 07:10:00,,0812.4,5.00,0.00,22.2,20.7,00.0,31.1,24.0,10.6,0001.0,0026.82,0010.70,0007.93
2022-12-14 07:11:00,,0812.3,5.00,0.00,22.2,20.7,00.0,31.1,24.0,10.6,0000.9,0026.04,0010.57,0007.89
2022-12-14 07:12:00,,0812.3,4.99,0.00,22.2,20.7,00.0,31.1,24.0,10.6,0000.8,0025.12,0010.60,0007.85
2022-12-14 07:13:00,,0812.3,5.01,0.00,22.3,21.3,00.0,31.1,24.1,10.6,0001.3,0025.12,0010.48,0007.82
2022-12-14 07:14:00,,0812.4,4.98,0.00,22.4,22.2,00.0,31.1,24.3,10.6,0001.8,0027.95,0010.47,0007.79
2022-12-14 07:15:00,,0812.4,5.03,0.00,22.4,22.2,00.0,31.1,24.4,10.5,0001.7,0028.42,0010.48,0007.75
2022-12-14 07:16:00,,0812.4,4.98,0.00,22.4,21.9,00.0,31.2,24.3,10.6,0001.2,0027.54,0010.37,0007.69
2022-12-14 07:17:00,,0812.3,5.01,0.00,22.4,21.6,00.0,31.2,24.2,10.6,0001.4,0027.66,0010.25,0007.64
2022-12-14 07:18:00,,0812.3,5.01,0.00,22.4,21.4,00.0,31.2,24.2,10.6,0001.4,0026.85,0010.23,0007.65
2022-12-14 07:19:00,,0812.3,5.01,0.00,22.4,21.2,00.0,31.2,24.2,10.6,0000.7,0027.43,0010.16,0007.64
2022-12-14 07:20:00,,0812.3,5.00,0.00,22.4,21.1,00.0,31.2,24.2,10.6,0000.8,0027.72,0010.03,0007.63
2022-12-14 07:21:00,,0812.3,5.00,0.00,22.4,21.0,00.0,31.2,24.1,10.6,0001.4,0027.83,0010.03,0007.65
2022-12-14 07:22:00,,0812.3,5.00,0.00,22.3,20.9,00.0,31.2,24.1,10.6,0001.7,0028.94,0010.10,0007.67
2022-12-14 07:23:00,,0812.3,5.00,0.00,22.3,20.9,00.0,31.2,24.1,10.6,0001.4,0029.02,0010.11,0007.70
2022-12-14 07:24:00,,0812.3,4.99,0.00,22.3,20.8,00.0,31.2,24.1,10.7,0000.8,0029.62,0010.13,0007.72
2022-12-14 07:25:00,,0812.3,5.05,0.00,22.3,20.7,00.0,31.2,24.1,10.6,0001.0,0027.70,0010.16,0007.77
2022-12-14 07:26:00,,0812.2,4.95,0.00,22.3,20.7,00.0,31.2,24.1,10.6,0001.2,0028.98,0010.27,0007.80
2022-12-14 07:27:00,,0812.2,5.03,0.00,22.3,20.7,00.0,31.2,24.1,10.6,0001.5,0029.58,0010.30,0007.83
2022-12-14 07:28:00,,0812.2,4.97,0.00,22.3,20.7,00.0,31.1,24.0,10.6,0001.3,0029.44,0010.41,0007.87
2022-12-14 07:29:00,,0812.3,5.00,0.00,22.3,20.8,00.0,31.1,24.1,10.6,0001.5,0029.61,0010.41,0007.88
2022-12-14 07:30:00,,0812.3,5.02,0.00,22.2,20.7,00.0,31.1,24.0,10.6,0001.7,0029.21,0010.45,0007.90
2022-12-14 07:31:00,,0812.3,4.98,0.00,22.2,20.6,00.0,31.1,24.0,10.7,0001.2,0028.79,0010.51,0007.90
2022-12-14 07:32:00,,0812.3,5.05,0.00,22.2,21.1,00.0,31.1,24.1,10.7,0001.0,0027.93,0010.56,0007.89
2022-12-14 07:33:00,,0812.3,4.96,0.00,22.3,22.1,00.0,31.1,24.3,10.7,0000.4,0026.94,0010.52,0007.87
2022-12-14 07:34:00,,0812.3,5.02,0.00,22.4,22.4,00.0,31.1,24.4,10.6,0000.2,0027.21,0010.52,0007.86
2022-12-14 07:35:00,,0812.3,4.98,0.00,22.4,22.0,00.0,31.2,24.4,10.6,0000.6,0027.36,0010.59,0007.88
2022-12-14 07:36:00,,0812.3,5.01,0.00,22.4,21.8,00.0,31.2,24.3,10.6,0000.3,0027.49,0010.61,0007.87
2022-12-14 07:37:00,,0812.3,5.01,0.00,22.4,21.5,00.0,31.2,24.2,10.5,-000.1,0027.10,0010.68,0007.87
2022-12-14 07:38:00,,0812.2,5.01,0.00,22.4,21.3,00.0,31.2,24.2,10.5,-000.5,0026.87,0010.81,0007.92
2022-12-14 07:39:00,,0812.2,5.00,0.00,22.4,21.2,00.0,31.2,24.2,10.5,-001.0,0027.14,0010.87,0007.96
2022-12-14 07:40:00,,0812.1,4.99,0.00,22.4,21.0,00.0,31.2,24.2,10.6,-001.6,0027.10,0010.88,0007.99
2022-12-14 07:41:00,,0812.1,5.00,0.00,22.4,20.9,00.0,31.2,24.2,10.6,-001.7,0028.63,0010.98,0008.04
2022-12-14 07:42:00,,0812.1,5.00,0.00,22.3,20.9,00.0,31.2,24.1,10.4,-001.2,0029.80,0011.07,0008.12
2022-12-14 07:43:00,,0812.2,5.00,0.00,22.3,20.9,00.0,31.2,24.1,10.3,-000.9,0030.61,0011.12,0008.21
2022-12-14 07:44:00,,0812.1,5.00,0.00,22.3,20.9,00.0,31.2,24.1,10.4,-000.2,0031.55,0011.21,0008.29
2022-12-14 07:45:00,,0812.2,5.00,0.00,22.3,20.8,00.0,31.2,24.1,10.5,0000.3,0031.46,0011.22,0008.34
2022-12-14 07:46:00,,0812.1,5.00,0.00,22.3,20.8,00.0,31.2,24.1,10.5,0000.1,0030.89,0011.27,0008.37
2022-12-14 07:47:00,,0812.2,5.00,0.00,22.3,20.8,00.0,31.2,24.1,10.6,-000.2,0030.93,0011.23,0008.37
2022-12-14 07:48:00,,0812.1,5.00,0.00,22.3,20.8,00.0,31.1,24.1,10.6,0000.1,0031.07,0011.15,0008.39
2022-12-14 07:49:00,,0812.1,5.00,0.00,22.3,20.8,00.0,31.1,24.1,10.6,0000.2,0031.40,0011.09,0008.37
2022-12-14 07:50:00,,0812.1,5.01,0.00,22.3,20.8,00.0,31.1,24.0,10.6,0000.6,0032.06,0011.09,0008.36
2022-12-14 07:51:00,,0812.2,5.00,0.00,22.3,21.1,00.0,31.1,24.1,10.6,0001.4,0032.42,0011.20,0008.38
2022-12-14 07:52:00,,0812.1,5.02,0.00,22.4,22.0,00.0,31.1,24.3,10.5,0001.8,0030.88,0011.18,0008.40
2022-12-14 07:53:00,,0812.1,4.97,0.00,22.5,22.4,00.0,31.2,24.4,10.3,0001.9,0029.87,0011.19,0008.41
2022-12-14 07:54:00,,0812.1,5.02,0.00,22.5,22.1,00.0,31.2,24.4,10.2,0001.5,0029.31,0011.19,0008.42
2022-12-14 07:55:00,,0812.1,4.99,0.00,22.5,21.8,00.0,31.2,24.3,10.2,0001.2,0028.42,0011.13,0008.41
2022-12-14 07:56:00,,0812.1,5.00,0.00,22.5,21.6,00.0,31.2,24.3,10.2,0001.1,0028.85,0011.25,0008.45
2022-12-14 07:57:00,,0812.1,5.00,0.00,22.4,21.4,00.0,31.2,24.3,10.2,0001.3,0028.28,0011.28,0008.50
2022-12-14 07:58:00,,0812.1,5.01,0.00,22.4,21.2,00.0,31.2,24.2,10.3,0001.4,0027.66,0011.34,0008.54
2022-12-14 07:59:00,,0812.1,5.01,0.00,22.4,21.1,00.0,31.2,24.2,10.3,0001.5,0026.91,0011.39,0008.57
